Location: Hertford
(51.7958°N, 0.0812°W)
Time: 23:25:18
(UTC+01:00)

ISS - Visible Passes

Search period start: 21 October 2019 00:00
Search period end: 30 October 2019 23:00
Orbit: 411 x 421 km, 51.6° (Epoch: 21 October)

Date Brightness Start Highest point End Pass type
(mag) Time Alt. Az. Time Alt. Az. Time Alt. Az.
25 Oct -0.9 06:36:20 10° S 06:38:33 16° SE 06:40:45 10° E visible
26 Oct -0.7 05:49:07 10° SSE 05:50:10 11° SE 05:51:13 10° ESE visible
27 Oct -2.0 05:34:42 10° SW 05:37:43 31° SSE 05:40:44 10° E visible
28 Oct -1.6 04:47:33 15° S 04:49:14 22° SE 04:51:55 10° E visible
29 Oct -1.0 04:01:15 15° SE 04:01:15 15° SE 04:02:53 10° ESE visible
29 Oct -3.1 05:34:09 13° SW 05:37:00 53° SSE 05:40:18 10° E visible
30 Oct -2.8 04:47:44 35° S 04:48:25 40° SSE 04:51:36 10° E visible
